FENGYUN 1C DEB, 38798

Orbit data source: Space-Track

FENGYUN 1C DEB, 38798 is space debris in SSO originally from a launch on Mon, 10 May 1999 UTC launched from the Taiyaun Space Center, China (TSC). Fengyun 1C debris stems from the Chinese weather satellite Fengyun-1C, which was intentionally destroyed by a Chinese anti-satellite missile in 2007. This event dramatically increased the amount of space debris, with thousands of trackable fragments posing hazards to satellites and human spaceflight. The Fengyun 1C debris cloud has become a focal point in discussions about space sustainability and the need for international regulations to prevent the creation of new debris.

Loading next visibility...
Identifier
38798, 1999-025EUN
Orbit
SSO
Country
Flag of CNCN / PRC
Related business
Manufacturer
Unknown
Mission
Spacecraft
Bus & Motor
Unknown
Mass
Unknown
Launch date (UTC)
1999-05-10 (27 years ago)
Launch vehicle
Unknown
Launch site
Taiyaun Space Center, China (TSC)
Object type
Payload
Rocket body
Debris
Shape & HBR
Unknown shape, 0.1 m
Radar Cross Section
Small (<0.1 m²)

Expand to show TLE details & history
Last TLE update: 6 days ago

TLE from 6 days ago
0 FENGYUN 1C DEB
1 38798U 99025EUN 26155.07139816  .00000356  00000-0  53595-3 0  9998
2 38798  98.8356 260.8986 0408114  32.7500 329.8234 13.29138040210375
Epoch: 2026-06-04T01:42Z
TLE epoch observation values (Epoch: 2026-06-04T01:42:48.801Z)
Latitude
0.00004°
Longitude
-17.32567°
Altitude
890.5 km
Speed
7.535 km/s
True Right ascension
17h 23m 35s
True Declination
0° 00' 00"
Sunlit
Object was in full shadow at epoch
Visualization orbit readout
Latitude
Unknown
Longitude
Unknown
Altitude
Unknown
Speed
Unknown
Apparent Right ascension
Unknown
Apparent Declination
Unknown
Sunlit
N/A
Visualization observer readout
Local Sidereal Time
18:50:45
Azimuth
Unknown
Elevation
Unknown
Doppler factor
Unknown
Orbital elements
Apogee altitude
1,454.42 km
Perigee altitude
840.173 km
Semi-major axis
7,525.434 km
Eccentricity
0.04081
Inclination
98.8356°
RAAN
260.8986°
Arg. of periapsis
32.75°
True anomaly
327.36512°
Mean anomaly
329.8234°
Eccentric anomaly
328.6053°
Mean motion
3.32465 °/min
Orbital period
108.28 mins
BSTAR
0.00053595
Loading maneuver chart data...
Computing Atmospheric mass density...

Documentation

Showing up to 5 results
|